Location: Newark
(40.3417°N, 75.9264°W)
Time: 00:34:57
(UTC+00:00)

N. Korean satellite - Visible Passes

Search period start: 21 February 2020 00:00
Search period end: 02 March 2020 00:00
Orbit: 456 x 505 km, 97.2° (Epoch: 20 February)

Date Brightness Start Highest point End Pass type
(mag) Time Alt. Az. Time Alt. Az. Time Alt. Az.
21 Feb 9.8 09:54:42 10° NE 09:57:03 16° E 09:59:22 10° SE visible
22 Feb 6.6 11:01:21 10° N 11:05:03 68° WNW 11:08:43 10° SSW visible
22 Feb 10.3 23:11:30 10° WSW 23:13:02 12° W 23:14:35 10° WNW visible
23 Feb 7.5 10:35:52 10° NNE 10:39:31 53° E 10:43:07 10° S visible
24 Feb 9.1 10:10:46 10° NE 10:13:53 25° E 10:16:58 10° SSE visible
25 Feb 10.1 09:46:34 10° ENE 09:48:09 12° E 09:49:44 10° ESE visible
26 Feb 6.6 10:52:32 10° NNE 10:56:15 88° WNW 10:59:55 10° SSW visible
27 Feb 8.1 10:27:09 10° NNE 10:30:40 40° E 10:34:08 10° S visible
28 Feb 9.5 10:02:15 10° NE 10:05:00 20° E 10:07:43 10° SE visible
29 Feb 6.8 11:09:18 10° N 11:12:54 51° WNW 11:16:27 10° SSW visible
01 Mar 6.9 10:43:42 10° NNE 10:47:24 70° E 10:51:01 10° S visible
